Moline, IL

6:11 PM CDT on June 27, 2017 (GMT -0500)
Quad-City International

Weather History for KMLI - December, 2014

Change the Weather History Date:

Friday, December 12, 2014

  Actual Average Record
Temperature  
Mean Temperature 30 °F 27 °F  
Max Temperature 38 °F 35 °F 65 °F (1991)
Min Temperature 22 °F 19 °F -11 °F (2000)
Degree Days  
Heating Degree Days 35 38  
Month to date heating degree days 429 427  
Since 1 July heating degree days 1934 1658  
Cooling Degree Days 0 0  
Month to date cooling degree days 0 0  
Year to date cooling degree days 839 1004  
Moisture  
Dew Point 28 °F    
Average Humidity 88    
Maximum Humidity 100    
Minimum Humidity 76    
Precipitation  
Precipitation 0.00 in 0.07 in 1.07 in (1946)
Month to date precipitation 0.05 0.97  
Year to date precipitation 38.62 36.75  
Snow  
Snow 0.00 in 0.30 in - ()
Month to date snowfall 0.0 3.0  
Since 1 July snowfall 4.6 4.2  
Snow Depth 0.00 in    
Sea Level Pressure  
Sea Level Pressure 30.32 in    
Wind  
Wind Speed 2 mph (SSW)    
Max Wind Speed 10 mph    
Max Gust Speed 12 mph    
Visibility 4 miles    
Events      
T = Trace of Precipitation, MM = Missing Value Source: NWS Daily Summary

Daily Weather History Graph

Daily Weather History Graph

Search for Another Location

Airport or City:

Trip Planner

Search our weather history database for the weather conditions in past years. The results will help you decide how hot, cold, wet, or windy it might be!

Date:

Astronomy

Dec. 12, 2014 Rise Set
Actual Time 7:19 AM CST 4:32 PM CST
Civil Twilight 6:47 AM CST 5:03 PM CST
Nautical Twilight 6:12 AM CST 5:38 PM CST
Astronomical Twilight 5:39 AM CST 6:12 PM CST
Moon 10:42 PM CST (12/12) 11:10 AM CST (12/12)
Length of Visible Light 10h 16m
Length of Day
9h 13m
Waning Gibbous, 67% of the Moon is Illuminated
Dec 12
Waning Gibbous
Dec 14
Last Quarter
Dec 21
New
Dec 28
First Quarter
Jan 4
Full

Hourly Weather History & Observations

Time (CST) Temp. Windchill Dew Point Humidity Pressure Visibility Wind Dir Wind Speed Gust Speed Precip Events Conditions
12:00 AM 21.9 °F 15.7 °F 19.0 °F 89% 30.29 in 4.0 mi SSW 4.6 mph - N/A   Scattered Clouds
12:09 AM 23.0 °F 17.0 °F 19.9 °F 88% 30.30 in 4.0 mi SW 4.6 mph - N/A   Mostly Cloudy
12:52 AM 28.0 °F 20.8 °F 25.0 °F 88% 30.31 in 4.0 mi West 6.9 mph - N/A   Overcast
1:52 AM 28.9 °F - 26.1 °F 89% 30.32 in 4.0 mi Calm Calm - N/A   Overcast
2:21 AM 28.9 °F - 27.0 °F 92% 30.31 in 2.5 mi Calm Calm - N/A   Overcast
2:38 AM 28.9 °F 25.2 °F 27.0 °F 92% 30.31 in 3.0 mi SSW 3.5 mph - N/A   Overcast
2:50 AM 28.4 °F - 26.6 °F 93% 30.31 in 2.5 mi Calm Calm - N/A   Overcast
2:52 AM 28.9 °F - 27.0 °F 92% 30.34 in 2.5 mi Calm Calm - N/A   Overcast
3:16 AM 28.9 °F - 27.0 °F 92% 30.32 in 1.8 mi Calm Calm - N/A   Overcast
3:52 AM 28.9 °F - 28.0 °F 96% 30.35 in 1.5 mi Calm Calm - N/A   Overcast
4:15 AM 28.9 °F - 28.0 °F 96% 30.32 in 1.2 mi Calm Calm - N/A   Overcast
4:38 AM 28.9 °F - 28.0 °F 96% 30.33 in 1.5 mi Calm Calm - N/A   Overcast
4:52 AM 28.9 °F 25.2 °F 27.0 °F 92% 30.35 in 1.5 mi ENE 3.5 mph - N/A   Overcast
5:05 AM 28.9 °F - 28.0 °F 96% 30.33 in 2.0 mi Calm Calm - N/A   Overcast
5:50 AM 30.2 °F 26.7 °F 28.4 °F 93% 30.33 in 2.5 mi SSW 3.5 mph - N/A   Overcast
5:52 AM 30.0 °F 26.5 °F 28.0 °F 92% 30.36 in 2.5 mi SSW 3.5 mph - N/A   Overcast
6:07 AM 30.0 °F 26.5 °F 27.0 °F 88% 30.33 in 2.5 mi SSW 3.5 mph - N/A   Overcast
6:15 AM 30.0 °F 25.2 °F 28.0 °F 92% 30.33 in 3.0 mi South 4.6 mph - N/A   Overcast
6:52 AM 30.0 °F 24.1 °F 28.0 °F 92% 30.34 in 4.0 mi SSW 5.8 mph - N/A   Overcast
7:52 AM 30.9 °F - 28.9 °F 92% 30.35 in 3.0 mi Calm Calm - N/A   Overcast
8:52 AM 30.9 °F - 30.0 °F 96% 30.36 in 3.0 mi Calm Calm - N/A   Overcast
9:04 AM 32.0 °F 27.5 °F 30.0 °F 92% 30.33 in 2.5 mi SSW 4.6 mph - N/A   Overcast
9:48 AM 33.8 °F - 30.2 °F 87% 30.35 in 2.5 mi Calm Calm - N/A   Overcast
9:52 AM 33.1 °F - 30.9 °F 92% 30.37 in 2.5 mi Calm Calm - N/A   Overcast
10:52 AM 34.0 °F 28.8 °F 30.9 °F 89% 30.34 in 2.5 mi South 5.8 mph - N/A   Overcast
11:52 AM 35.1 °F - 30.9 °F 85% 30.35 in 2.5 mi Calm Calm - N/A   Overcast
11:59 AM 36.0 °F - 30.9 °F 82% 30.33 in 4.0 mi Calm Calm - N/A   Haze
12:52 PM 37.0 °F 34.5 °F 30.9 °F 79% 30.31 in 5.0 mi SW 3.5 mph - N/A   Haze
1:52 PM 37.0 °F 33.3 °F 30.9 °F 79% 30.30 in 5.0 mi SSW 4.6 mph - N/A   Haze
2:52 PM 37.9 °F 35.5 °F 30.9 °F 76% 30.30 in 5.0 mi Variable 3.5 mph - N/A   Haze
3:52 PM 37.9 °F 35.5 °F 30.9 °F 76% 30.30 in 5.0 mi SSE 3.5 mph - N/A   Haze
4:52 PM 37.9 °F - 30.9 °F 76% 30.30 in 7.0 mi Calm Calm - N/A   Overcast
5:52 PM 37.0 °F 34.5 °F 30.9 °F 79% 30.30 in 7.0 mi SSE 3.5 mph - N/A   Overcast
6:52 PM 37.0 °F 34.5 °F 30.9 °F 79% 30.28 in 6.0 mi SSE 3.5 mph - N/A   Haze
7:09 PM 36.0 °F - 30.0 °F 79% 30.26 in 6.0 mi Calm Calm - N/A   Haze
7:52 PM 33.1 °F - 28.0 °F 82% 30.28 in 6.0 mi Calm Calm - N/A   Haze
8:52 PM 33.1 °F - 28.9 °F 85% 30.28 in 6.0 mi Calm Calm - N/A   Mostly Cloudy
9:52 PM 33.1 °F - 28.9 °F 85% 30.26 in 6.0 mi Calm Calm - N/A   Clear
10:52 PM 32.0 °F - 28.0 °F 85% 30.26 in 5.0 mi Calm Calm - N/A   Clear
11:52 PM 27.0 °F - 25.0 °F 92% 30.26 in 4.0 mi Calm Calm - N/A   Clear